Other Public Products
Issued by NWS Grand Forks, ND

Home | Current Version | Previous Version | Graphics & Text | Print | Product List | Glossary On
Versions: 1 2 3 4 5 6 7 8 9 10 11 12 13 14 15 16 17 18 19 20 21 22 23 24 25 26 27 28 29 30 31 32 33 34 35 36 37 38 39 40 41 42 43 44 45 46 47 48 49 50
000
FPUS83 KFGF 041531
OPUFGF
PRAIRIE TO PINES WEATHER ROUNDUP
NATIONAL WEATHER SERVICE EASTERN NORTH DAKOTA/GRAND FORKS ND
1000 AM CDT FRI SEP 04 2015

 **SATELLITE DATA USED TO AUGMENT SKY COVER AT AUTOMATED STATIONS**
 *****  WEATHER ACROSS EASTERN NORTH DAKOTA  *****

CITY           SKY/WX    TMP DP  RH WIND       PRES   REMARKS
GRAND FORKS    CLOUDY    76  71  85 SE14      29.76S
GRAND FORKS AF CLOUDY    75  72  88 SE7       29.77S
GRAND CITY NWS   N/A     75 N/A N/A SE13        N/A
BUXTON         NOT AVBL
DEVILS LAKE    CLOUDY    75  66  73 E7        29.75S
FARGO          PTSUNNY   79  72  79 SE21      29.76F
WAHPETON ARPT  PTSUNNY   79  68  69 S16G23    29.80R
$$

 *****  WEATHER ACROSS CENTRAL AND WESTERN NORTH DAKOTA  *****

CITY           SKY/WX    TMP DP  RH WIND       PRES   REMARKS
JAMESTOWN      LGT RAIN  75  72  90 S13       29.77R
BISMARCK       CLOUDY    74  71  91 SE6       29.74S
MINOT          CLOUDY    65  59  81 N13       29.81R
MINOT AFB      CLOUDY    64  62  95 N16       29.80R
GARRISON         N/A     69  65  86 NE15      29.79S
WILLISTON      CLOUDY    61  52  72 NW21      29.84F
DICKINSON      CLOUDY    66  63  90 CALM      29.81R
HETTINGER      CLOUDY    72  62  71 N6        29.81F
$$

 *****  OTHER OBSERVATIONS NORTHEAST NORTH DAKOTA  *****

CITY           SKY/WX    TMP DP  RH WIND       PRES   REMARKS
WALHALLA       FAIR      73  73 100 MISG      29.80R
LANGDON        CLOUDY    79  73  83 SE10      29.80S
CAVALIER       FOG       73  73 100 SE5       29.80R VSB 3/4
GRAFTON        CLOUDY    75  73  94 S10       29.79R
CANDO          PTSUNNY   75  73  94 SE6       29.78S
FORT TOTTEN      N/A     76  74  92 S6        29.95S
ROLLA          CLOUDY    64  64 100 N17       29.83R FOG
RUGBY          PTSUNNY   73  73 100 SE5       29.76S
 ***** THE ABOVE OBSERVATIONS ARE NON NWS ARE NOT QUALITY
        CONTROLLED AND MAY MIS-REPORT RAIN FOR SNOW...
$$

 *****  OTHER OBSERVATIONS SOUTHEAST NORTH DAKOTA *****

CITY           SKY/WX    TMP DP  RH WIND       PRES   REMARKS
COOPERSTOWN    NOT AVBL
VALLEY CITY    CLOUDY    75  75 100 S14G22    29.79R
OAKES          LGT RAIN  72  72 100 SW9       29.79R
GWINNER          N/A     75  75 100 SW7       29.79S
BUFFALO        NOT AVBL
WYNDMERE         N/A     79  72  78 S12         N/A
 ***** THE ABOVE OBSERVATIONS ARE NON NWS ARE NOT QUALITY
       CONTROLLED AND MAY MIS-REPORT RAIN FOR SNOW...
$$

  *****  WEATHER ACROSS NORTHERN MINNESOTA  *****

CITY           SKY/WX    TMP DP  RH WIND       PRES   REMARKS
FLAG ISLAND    CLOUDY    70  63  78 SE13      29.88R
WARROAD        CLOUDY    68  64  88 E12       29.88R
ROSEAU         PTSUNNY   72  66  83 E9        29.85R
HALLOCK        PTSUNNY   79  72  78 SE7       29.79R
THF RVR FALLS  MOSUNNY   75  70  83 SE13      29.82R
HALSTAD        NOT AVBL
FOSSTON        SUNNY     75  66  73 SE14G20   29.83R
BAUDETTE       CLOUDY    70  64  81 SE13G20   29.89R
WASKISH        SUNNY     75  68  78 SE13G18   29.88R
CROOKSTON      MOSUNNY   79  72  78 S16       29.78F
$$
  *****  WEATHER ACROSS CENTRAL AND WEST MINNESOTA  *****

CITY           SKY/WX    TMP DP  RH WIND       PRES   REMARKS
BEMIDJI        CLOUDY    69  66  89 SE12G20   29.87S
PARK RAPIDS    CLOUDY    72  67  84 SE18      29.88S
WADENA         CLOUDY    72  68  88 SE12      29.87S FOG
DETROIT LAKES  CLOUDY    73  70  88 SE18      29.84F
MOORHEAD       PTSUNNY   81  72  74 S17G26    29.78R
FERGUS FALLS   MOSUNNY   81  72  74 S16       29.81R
ELBOW LAKE     FAIR      78  71  78 S17G25    29.84R HAZE
MORRIS MN      PTSUNNY   81  72  74 S13       29.83R
STAPLES        CLOUDY    72  66  83 SE9       29.88F
WHEATON        PTSUNNY   77  70  78 SE10      29.82S
$$
  *****  WEATHER ELSEWHERE ACROSS MINNESOTA  *****

CITY           SKY/WX    TMP DP  RH WIND       PRES   REMARKS
DULUTH         MOSUNNY   68  61  78 SE12      30.01S
INTRNTL FALLS  MOSUNNY   76  66  71 SE12      29.94S
ELY            SUNNY     73  59  60 SE14      30.01S
CLOQUET        CLOUDY    66  61  82 E12       29.99S
BRAINERD       MOSUNNY   76  68  76 SE10      29.91R
HIBBING        CLOUDY    70  62  76 SE9G18    29.98S
ALEXANDRIA     MOSUNNY   78  71  79 SE15      29.87F
SAINT CLOUD    MOSUNNY   76  70  82 SE14      29.91R
MINNEAPOLIS    MOSUNNY   75  69  81 SE9G20    29.94S
$$

  *****  WEATHER ACROSS SOUTH DAKOTA  *****

CITY           SKY/WX    TMP DP  RH WIND       PRES   REMARKS
SIOUX FALLS    PTSUNNY   78  69  73 S13       29.87R
BROOKINGS      PTSUNNY   75  68  78 SW10      29.90R
WATERTOWN      CLOUDY    74  69  85 S14       29.87R
HURON          CLOUDY    71  68  90 SE9       29.80R
SISSETON         N/A     78  69  73 S3        29.79R
ABERDEEN       LGT RAIN  72  67  84 NE3       29.76F
MITCHELL       CLOUDY    77  68  73 S12       29.81F
PIERRE         MOSUNNY   76  66  71 SE8       29.76R
MOBRIDGE       CLOUDY    72  70  93 S7        29.73R
RAPID CITY     MOSUNNY   72  55  55 SE3       29.82R
$$

  *****  SOME WEATHER IN NEARBY STATES *****

CITY           SKY/WX    TMP DP  RH WIND       PRES   REMARKS
GLASGOW MT     CLOUDY    61  41  47 NE23      29.93S
GREAT FALLS MT CLOUDY    50  47  89 NE7       29.97R
CHEYENNE WY    SUNNY     72  45  37 SW8       30.06R
SCOTTSBLUFF NE SUNNY     68  54  60 CALM      29.92S
OMAHA NE       CLOUDY    78  69  73 S15       29.93S
DES MOINES IA  MOSUNNY   82  70  66 S8        29.97S
DAVENPORT IA   MOSUNNY   80  70  71 CALM      30.02R
CHICAGO IL     PTSUNNY   75  66  73 VRB6      30.03R
EAU CLAIRE WI  PTSUNNY   75  65  70 SE9       30.01R
LA CROSSE WI   PTSUNNY   78  68  71 S8        30.00R
$$

  *****  SOME NATIONAL WEATHER *****

CITY           SKY/WX    TMP DP  RH WIND       PRES   REMARKS
LA GUARDIA NY  PTSUNNY   80  67  64 NE20      30.07R
RALEIGH NC     MOSUNNY   84  71  65 CALM      30.02R
ATLANTA GA     MOSUNNY   83  69  62 CALM      30.04R
NEW ORLEANS LA PTSUNNY   86  74  67 CALM      30.00S HX  94
OKLAHOMA CITY  MOSUNNY   82  69  64 S13       29.98S
ALBUQUERQUE NM LGT RAIN  71  49  45 S7        30.13R
SALT LAKE CITY PTSUNNY   76  37  24 S20G25    29.86S
LOS ANGELES CA PTSUNNY   69  54  58 SE10      29.89R
BOISE ID       MOSUNNY   51  39  63 W3        29.85S
SEATTLE WA     CLOUDY    52  48  86 N8        30.02R
$$

*** WEATHER ACROSS MANITOBA...SASKATCHEWAN AND ONTARIO ***
                ***ONTARIO***

CITY           SKY/WX    TMP DP  RH WIND       PRES   REMARKS
GERALDTON      MOSUNNY   73  59  60 S7        30.12R
THUNDER BAY    MOSUNNY   70  59  68 E7        30.07
SIOUX LOOKOUT  PTSUNNY   70  63  78 S5        30.02R
TORONTO        PTSUNNY   79  63  57 E10       30.11R
BIG TROUT LK   LGT RAIN  63  61  94 NE7       29.91F
PICKLE LAKE    PTSUNNY   72  61  68 S10       30.02S
DRYDEN         PTSUNNY   72  63  73 S12       29.99R
KENORA         PTSUNNY   72  64  78 SE10G18   29.92F
$$
                *** MANITOBA***

CITY           SKY/WX    TMP DP  RH WIND       PRES   REMARKS
BRANDON        CLOUDY    66  59  77 NE20      29.85S
DAUPHIN        LGT RAIN  55  54  94 NW6       29.94S
ISLAND LAKE    LGT RAIN  66  64  94 VRB2      29.88  FOG
PILOT MOUND      N/A     66  64  94 N14G20      N/A
THE PAS        CLOUDY    57  46  67 NW9       30.00R
THOMPSON       PTSUNNY   55  48  76 NW6       29.95
WINNIPEG       DRIZZLE   73  72  94 SE15      29.81S
LYNN LAKE      MOSUNNY   54  43  66 W16       29.93R
CHURCHILL      CLOUDY    50  50 100 NW5       29.85R FOG
GILLAM         CLOUDY    59  48  67 NW9       29.90R
$$
                ***SASKATCHEWAN***

CITY           SKY/WX    TMP DP  RH WIND       PRES   REMARKS
ESTEVAN        CLOUDY    61  52  72 N12       29.87F
KINDERSLEY     CLOUDY    50  43  76 E10       30.07S
LLOYDMINSTER   PTSUNNY   46 N/A N/A N6        30.13R
PRINCE ALBERT  CLOUDY    50  45  81 NW3       30.08R
REGINA         PTSUNNY   55  50  82 N12       30.00R
YORKTON        MOSUNNY   59  48  67 NE13G20   29.98S


USA.gov is the U.S. government's official web portal to all federal, state and local government web resources and services.